This is the latest recevied weather packets stored in our database for station/object KI6PPU. If no packets are shown the sender has not sent any weather packets the latest 10 day(s).
| Time | Temp. | Humidity | Pressure | Rain* | Wind** | Luminosity | Snow |
|---|---|---|---|---|---|---|---|
| 1777845483 | 15.56° C | 74% | 1014.8 hPa | 0 mm | - | 168 W/m² | - |
| 1777845180 | 15.56° C | 75% | 1014.7 hPa | 0 mm | - | 174 W/m² | - |
| 1777844878 | 15.56° C | 74% | 1015 hPa | 0 mm | - | 180 W/m² | - |
| 1777844575 | 15.56° C | 73% | 1015 hPa | 0 mm | - | 163 W/m² | - |
| 1777844272 | 15.56° C | 75% | 1014.9 hPa | 0 mm | - | 142 W/m² | - |
| 1777843970 | 15.56° C | 75% | 1014.9 hPa | 0 mm | - | 138 W/m² | - |
| 1777843666 | 15.56° C | 74% | 1014.8 hPa | 0 mm | - | 143 W/m² | - |
| 1777843364 | 15.56° C | 73% | 1015 hPa | 0 mm | - | 136 W/m² | - |
| 1777843061 | 15.56° C | 73% | 1015.2 hPa | 0 mm | - | 139 W/m² | - |
| 1777842758 | 16.11° C | 72% | 1015 hPa | 0 mm | - | 155 W/m² | - |
| 1777842453 | 15.56° C | 73% | 1014.8 hPa | 0 mm | - | 164 W/m² | - |
| 1777842151 | 16.11° C | 72% | 1015.2 hPa | 0 mm | - | 159 W/m² | - |
| 1777841846 | 16.11° C | 72% | 1015.3 hPa | 0 mm | - | 176 W/m² | - |
| 1777841542 | 15.56° C | 72% | 1015.2 hPa | 0 mm | - | 186 W/m² | - |
| 1777841239 | 15.56° C | 74% | 1015.3 hPa | 0 mm | - | 207 W/m² | - |
| 1777840937 | 15.56° C | 73% | 1015.3 hPa | 0 mm | - | 207 W/m² | - |
| 1777840634 | 15.56° C | 72% | 1015.2 hPa | 0 mm | - | 220 W/m² | - |
| 1777840331 | 15.56° C | 73% | 1015 hPa | 0 mm | - | 270 W/m² | - |
| 1777840028 | 15.56° C | 73% | 1014.8 hPa | 0 mm | - | 338 W/m² | - |
| 1777839726 | 15.56° C | 73% | 1015 hPa | 0 mm | - | 273 W/m² | - |
| 1777839424 | 15.56° C | 73% | 1014.9 hPa | 0 mm | - | 247 W/m² | - |
| 1777839121 | 15.56° C | 72% | 1015.2 hPa | 0 mm | - | 263 W/m² | - |
| 1777838817 | 16.11° C | 71% | 1015.2 hPa | 0 mm | - | 270 W/m² | - |
| 1777838514 | 16.11° C | 71% | 1015 hPa | 0 mm | - | 306 W/m² | - |
| 1777838211 | 16.67° C | 71% | 1014.9 hPa | 0 mm | - | 391 W/m² | - |
* Rain latest hour (hover to see other rain measurements)
** Current wind speed in m/s (hover to see current wind gust speed)